sat.trackr.live / text

‹ back to catalog

STARLINK-34404

NORAD 64442 · 2025-130E

PAYLOAD ACTIVE UNKNOWN

§ Identity

Operator
Country
US
Launch date
2025-06-18
Launch site
AFETR
Launch vehicle
Mass (kg)
RCS (m²)

Purposes: comms

External: N2YO · Heavens-Above · Gunter

§ Orbital elements

Epoch: 2026-09-20T08:55:41.779776Z

Period
93.85 min
Inclination
53.1584°
Eccentricity
0.0001212
Mean motion
15.34432067 rev/d
Perigee alt
461.8 km
Apogee alt
463.4 km
Semi-major
6,840.7 km
B*
6.3336e-4
RAAN
260.4456°
Arg perigee
76.9338°
Mean anomaly
283.1800°
Rev number
7,056

§ Raw data

STARLINK-344041 64442U 25130E   26263.37201134  .00021105  00000+0  63336-3 0  99932 64442  53.1584 260.4456 0001212  76.9338 283.1800 15.34432067 70562

JSON: /api/v1/satellites/64442 · /tle

For live sub-satellite position, see the globe view (requires WebGL).

§ Visibility from observer

Set your observer location to see the next 7 days of passes ≥ 10°. The values pass through the URL so the page stays shareable.

No JS? Fill the form by hand. The geolocation button needs JavaScript.